Location: Kellogg
(38.0159°N, 90.0546°W)
Time: 15:01:15
(UTC+00:00)

Altair - Pass Details

Date: 17 September 2024
Orbit: 1501 x 1682 km, 47.2° (Epoch: 15 October)

Event Time Altitude Azimuth Distance (km) Brightness Sun altitude
Exits shadow 10:51:26 - 285° (WNW) 4,089 9.2 -11.1°
Reaches altitude 10° 10:52:00 10° 286° (WNW) 3,924 9.1 -11.0°
Maximum altitude 11:01:47 50° 1° (N) 2,051 8.3 -9.1°
Drops below altitude 10° 11:11:35 10° 75° (ENE) 3,931 11.4 -7.2°
Sets 11:14:54 0° 81° (E) 4,906 13.0 -6.6°
